CST,Max TemperatureF,Mean TemperatureF,Min TemperatureF,Max Dew PointF,MeanDew PointF,Min DewpointF,Max Humidity, Mean Humidity, Min Humidity, Max Sea Level PressureIn, Mean Sea Level PressureIn, Min Sea Level PressureIn, Max VisibilityMiles, Mean VisibilityMiles, Min VisibilityMiles, Max Wind SpeedMPH, Mean Wind SpeedMPH, Max Gust SpeedMPH,PrecipitationIn, CloudCover, Events, WindDirDegrees
2014-1-1,7,4,0,2,-2,-5,85,75,57,30.51,30.38,30.23,10,6,1,16,10,19,0.17,8,Snow,19
2014-1-2,7,-2,-11,-4,-8,-14,87,75,49,30.57,30.51,30.39,10,10,2,10,5,11,0.00,2,,13
2014-1-3,37,16,-5,30,12,-7,82,74,66,30.38,29.92,29.56,10,10,10,29,16,35,0.00,4,,169
2014-1-4,42,24,5,33,10,-3,85,71,56,30.36,30.04,29.60,10,10,9,44,18,50,T,3,Snow,336
2014-1-5,6,-2,-10,-4,-12,-21,76,64,51,30.62,30.51,30.38,10,8,1,35,20,42,T,5,Snow,337
2014-1-6,1,-6,-13,-10,-17,-22,79,66,53,30.57,30.49,30.35,10,10,10,28,14,38,T,3,,308
2014-1-7,19,5,-9,5,-2,-14,79,64,49,30.34,30.23,30.15,10,10,10,13,6,15,0.00,6,,62
2014-1-8,19,13,6,8,4,0,76,66,56,30.49,30.43,30.34,10,10,10,15,7,18,0.00,7,,68
2014-1-9,31,20,8,26,14,3,92,78,63,30.41,30.13,29.88,10,9,6,24,13,30,0.00,4,,157
2014-1-10,34,26,18,32,26,18,100,93,85,29.89,29.65,29.56,8,2,0,18,8,23,0.00,7,Fog,192
2014-1-11,42,30,18,28,22,17,96,76,55,29.84,29.73,29.60,10,9,1,26,10,35,0.00,0,,321
2014-1-12,47,37,26,35,29,23,81,68,55,29.66,29.55,29.46,10,10,10,28,9,35,0.00,3,,272
2014-1-13,47,35,22,36,25,20,81,59,37,29.86,29.73,29.60,10,10,10,28,12,37,T,2,,272
2014-1-14,46,30,14,35,18,8,73,62,50,30.29,30.02,29.59,10,10,7,44,26,53,T,6,Rain-Snow,328
2014-1-15,47,23,-1,28,13,-4,91,69,47,30.30,30.02,29.67,10,10,10,21,9,28,0.00,4,,205
2014-1-16,46,29,12,28,15,1,84,64,43,30.11,29.86,29.67,10,6,0,52,30,63,T,7,Fog-Rain-Snow,326
2014-1-17,29,19,8,11,1,-4,63,46,29,30.22,30.09,29.78,10,10,10,32,14,41,0.00,2,Snow,338
2014-1-18,42,29,16,31,20,14,92,70,47,30.10,29.85,29.59,10,10,5,45,20,56,T,5,Snow,307
2014-1-19,65,39,13,27,20,10,96,58,19,29.99,29.79,29.62,10,10,10,32,11,40,0.00,0,,303
2014-1-20,44,22,0,28,15,-11,85,69,53,30.57,30.16,29.85,10,8,1,41,18,53,0.01,4,Rain-Snow,323
2014-1-21,24,9,-6,15,-5,-15,75,56,37,30.61,30.33,30.04,10,10,10,22,10,26,0.00,5,,156
2014-1-22,25,11,-3,17,5,-12,83,67,50,30.71,30.28,30.06,10,8,2,37,18,46,T,5,Snow,341
2014-1-23,15,5,-6,-6,-9,-13,75,58,40,30.92,30.75,30.42,10,10,10,22,13,29,0.00,0,,299
2014-1-24,49,31,12,34,20,-7,56,46,36,30.34,29.89,29.67,10,10,10,35,17,42,T,5,Rain,279
2014-1-25,46,34,22,34,20,8,85,61,36,30.11,29.85,29.46,10,10,10,30,14,35,T,5,Rain,322
2014-1-26,53,28,2,33,15,-13,67,55,42,30.36,29.82,29.44,10,9,0,53,27,61,T,6,Rain-Snow,324
2014-1-27,8,-1,-11,-6,-11,-13,82,62,41,30.59,30.50,30.32,10,10,8,26,12,32,0.00,1,,329
2014-1-28,17,1,-15,-6,-11,-20,75,54,33,30.55,30.43,30.28,10,10,10,20,6,24,0.00,0,,301
2014-1-29,49,22,-5,14,2,-13,72,45,18,30.27,29.91,29.54,10,10,10,30,14,39,0.00,0,,160
2014-1-30,41,27,13,31,13,3,81,56,30,30.15,29.74,29.37,10,10,7,35,17,42,0.01,5,Rain-Snow,324
2014-1-31,25,16,7,6,1,-2,67,54,40,30.24,30.13,30.01,10,10,10,18,6,21,0.00,2,,139